This demonstration page uses our WeatherBlox Daily Observations layout. Learn more.

Left ArrowRight Arrow

Hourly Observations for July 5, 2022

Temp ( °F °C ) Dew Point ( °F °C ) Humidity (%) Winds ( mph kmh ) Pressure ( in mb ) Visibility ( mi km ) Precip ( " mm )
12:53 am 00:53 Clear 59 15 49 9.4 69 69 ESE 3 6 29.88 1012 10 16 0.00 0.00
1:53 am 01:53 Partly Cloudy 54 12.2 49 9.4 83 83 Calm 29.88 1012 10 16 0.00 0.00
2:53 am 02:53 Clear 53 11.7 48 8.9 83 83 Calm 29.88 1012 10 16 0.00 0.00
3:53 am 03:53 Mostly Cloudy 54 12.2 49 9.4 83 83 SW 5 7 29.89 1012 10 16 0.00 0.00
4:53 am 04:53 Clear 54 12.2 48 8.9 80 80 Calm 29.90 1012 10 16 0.00 0.00
5:53 am 05:53 Sunny 51 10.6 47 8.3 86 86 SSW 10 17 29.94 1014 10 16 0.00 0.00
6:53 am 06:53 Mostly Sunny 55 12.8 49 9.4 80 80 WNW 3 6 29.94 1014 10 16 0.00 0.00
7:53 am 07:53 Sunny 64 17.8 49 9.4 58 58 NNE 3 6 29.96 1014 10 16 0.00 0.00
8:53 am 08:53 Mostly Sunny 70 21.1 53 11.7 55 55 WNW 5 7 29.97 1015 10 16 0.00 0.00
9:02 am 09:02 Partly Cloudy with Nearby Thunderstorms 70 21.1 53 11.7 55 55 W 5 7 29.78 1008 10 16 0.00 0.00
9:17 am 09:17 Mostly Cloudy 69 20.6 53 11.7 57 57 W 5 7 29.80 1009 10 16 0.00 0.00
9:53 am 09:53 Mostly Cloudy 74 23.3 52 11.1 46 46 VRB 6 9 29.97 1015 10 16 0.00 0.00
10:53 am 10:53 Mostly Sunny 71 21.7 48 8.9 44 44 SSE 20 31 30.00 1016 10 16 0.00 0.00
11:53 am 11:53 Sunny 73 22.8 50 10 44 44 SSE 24 39 29.99 1016 10 16 0.00 0.00
12:53 pm 12:53 Sunny 81 27.2 50 10 34 34 SE 9 15 29.93 1014 10 16 0.00 0.00
1:53 pm 13:53 Sunny 85 29.4 50 10 30 30 NNE 12 19 29.91 1013 10 16 0.00 0.00
2:53 pm 14:53 Sunny 85 29.4 49 9.4 29 29 NNE 8 13 29.90 1012 10 16 0.00 0.00
3:53 pm 15:53 Sunny 84 28.9 46 7.8 27 27 NNE 5 7 29.88 1012 10 16 0.00 0.00
4:53 pm 16:53 Mostly Cloudy 78 25.6 46 7.8 32 32 SW 6 9 29.90 1012 10 16 0.00 0.00
5:09 pm 17:09 Mostly Cloudy with Nearby Thunderstorms 76 24.4 48 8.9 37 37 SSW 8 13 29.63 1003 10 16 0.00 0.00
5:48 pm 17:48 Sunny 70 21 48 9 46 46 SSE 26 43 29.71 1006 10 16 0.00 0.00
5:53 pm 17:53 Sunny 69 20.6 48 8.9 47 47 S 25 41 29.95 1014 10 16 0.00 0.00
6:53 pm 18:53 Sunny 68 20 46 7.8 45 45 S 29 46 29.93 1014 10 16 0.00 0.00
7:53 pm 19:53 Partly Cloudy 70 21.1 46 7.8 42 42 SW 14 22 29.98 1015 10 16 0.00 0.00
8:53 pm 20:53 Mostly Clear 66 18.9 49 9.4 54 54 SSE 18 30 29.95 1014 10 16 0.00 0.00
9:53 pm 21:53 Partly Cloudy 66 18.9 48 8.9 52 52 E 17 28 29.89 1012 10 16 0.00 0.00
10:53 pm 22:53 Mostly Clear 67 19.4 48 8.9 51 51 ENE 14 22 29.94 1014 10 16 0.00 0.00
11:53 pm 23:53 Clear 64 17.8 48 8.9 56 56 E 6 9 29.94 1014 10 16 0.00 0.00

Powered by AerisWeather